Regional Weather Roundup
Issued by NWS

Home | Current Version | Previous Version | Text Only | Print | Product List | Glossary On
Versions: 1 2 3 4 5 6 7 8 9 10 11 12 13 14 15 16 17 18 19 20 21 22 23 24 25 26 27 28 29 30 31 32 33 34 35 36 37 38 39 40 41 42 43 44 45 46 47 48 49 50
000
ASUS44 KLIX 032311
RWRLA
LOUISIANA WEATHER ROUNDUP
NATIONAL WEATHER SERVICE NEW ORLEANS LA
600 PM CDT WED JUN 03 2015

NOTE: "FAIR" INDICATES FEW OR NO CLOUDS BELOW 12,000 FEET WITH NO
      SIGNIFICANT WEATHER AND/OR OBSTRUCTIONS TO VISIBILITY.
      SKY/WX - SKY CONDITION AND SIGNIFICANT WEATHER.
      TMP - AIR TEMPERATURE.    DP   - DEWPOINT TEMPERATURE.
      RH  - RELATIVE HUMIDITY.  PRES - PRESSURE.
      HX  - HEAT INDEX.         WCI  - WIND CHILL INDEX.

*  THESE STATIONS ARE NOT NWS OR FAA STATIONS AND ARE NOT UNDER
   NWS QUALITY CONTROL.

LAZ040-048-061>063-065-066-069-040000-
SOUTHEAST LOUISIANA

CITY           SKY/WX    TMP DP  RH WIND       PRES   REMARKS
N.O. AUDUBON     N/A     90  67  47 MISG        N/A
N.O. INTL ARPT MOSUNNY   87  60  40 NE7       29.88F
N.O. LAKEFRONT SUNNY     89  65  44 NW5       29.88F
SLIDELL        MOSUNNY   87  69  54 CALM      29.87F
BATON ROUGE    SUNNY     86  64  47 NW6       29.89F
BOOTHVILLE     SUNNY     86  67  52 NE3       29.89F
BELLE CHASSE   PTSUNNY   86  63  45 CALM      29.87F
BOGALUSA*        N/A     85  64  49 N3        29.91S
GALLIANO*      PTCLDY    88  62  41 MISG      29.88F
NEW ROADS*     FAIR     N/A N/A N/A NW8       29.91S
GONZALES*      FAIR      83  70  64 CALM      29.87F
HAMMOND*       SUNNY     88  61  40 N5        29.90F
HOUMA*         MOSUNNY   86  70  58 S5        29.88F
PORT FOURCHON* CLEAR     84  59  42 SW8       29.89F

$$

LAZ041-044-053-054-040000-
SOUTHWEST LOUISIANA

CITY           SKY/WX    TMP DP  RH WIND       PRES   REMARKS
LAKE CHARLES   PTSUNNY   85  67  54 E5        29.89S
LAFAYETTE      SUNNY     87  64  46 N9        29.89F
PATTERSON      SUNNY     86  64  48 NW6       29.89F
SALT POINT       N/A     87  68  52 SW5       29.86F
NEW IBERIA     SUNNY     88  65  46 N8        29.89F
CHENAULT AIRPK MOSUNNY   84  66  54 NE3       29.90S

$$

LAZ027-028-040000-
CENTRAL LOUISIANA

CITY           SKY/WX    TMP DP  RH WIND       PRES   REMARKS
FORT POLK      MOSUNNY   84  65  53 NE5       29.90S
ALEXANDRIA INT CLOUDY    84  65  52 NE5       29.90S
ALEXANDRIA     CLOUDY    82  65  56 CALM      29.93S

$$

LAZ001-002-040000-
NORTHWEST LOUISIANA

CITY           SKY/WX    TMP DP  RH WIND       PRES   REMARKS
SHREVEPORT     MOSUNNY   87  63  44 CALM      29.91F
BARKSDALE AFB  SUNNY     86  65  48 E7        29.91F
DTN SHREVEPORT MOSUNNY   85  64  49 E5        29.92S

$$

LAZ014-016-040000-
NORTHEAST LOUISIANA

CITY           SKY/WX    TMP DP  RH WIND       PRES   REMARKS
MONROE         MOSUNNY   83  65  54 E6        29.95S
TALLULAH       SUNNY     83  62  49 N6        29.94S

$$




USA.gov is the U.S. government's official web portal to all federal, state and local government web resources and services.